Home   Weather   Koblenz   Past weeks

Flag for Germany Past Weather in Koblenz, Rhineland-Palatinate, Germany — Yesterday and Last 2 Weeks

45 °F

Quite cool.

Feels Like: 41 °F
Forecast: 36 / 58 °F
Wind: 6 mph from Southeast

Location: Buechel

Current Time: Oct 26, 2016 at 2:30:58 AM

Latest Report: Oct 26, 2016 at 1:20 AM

Visibility: 1 mi

Pressure: 30.30 "Hg

Humidity: 100%

Dew Point: 45 °F

Location of KoblenzLocation

Past Weather in Koblenz — Graph


Koblenz Temperature Yesterday

Maximum temperature yesterday: 52 °F (at 2:20 PM)
Minimum temperature yesterday: 46 °F (at 8:48 AM)
Average temperature yesterday: 49 °F

High & Low Weather Summary for the Past Weeks

High61 °F (Oct 16, 3:20 PM)100% (Oct 12, 9:20 AM)30.30 "Hg (Oct 12, 9:20 AM)
Low37 °F (Oct 23, 5:20 AM)54% (Oct 11, 2:20 PM)29.68 "Hg (Oct 14, 5:20 PM)
Average45 °F92%29.99 "Hg
* Reported Oct 11 12:20 AM — Oct 26 12:20 AM, Koblenz, Weather by CustomWeather, © 2016

Note: Actual official high and low records may vary slightly from our data, if they occured in-between our weather recording intervals... More about our weather records


Koblenz Weather History for the Previous 24 Hours

Scroll right to see more
Time TempWeatherWind HumidityBarometerVisibility
12:20 AM
Wed, Oct 26
45 °FQuite cool.5 mph100%30.30 "Hg0 mi
11:20 PM
Tue, Oct 25
46 °FCool.6 mph100%30.30 "Hg0 mi
10:20 PM46 °FCool.6 mph100%30.27 "Hg0 mi
9:20 PM46 °FCool.5 mph100%30.27 "Hg0 mi
8:20 PM46 °FCool.5 mph100%30.27 "Hg0 mi
7:20 PM48 °FFog.6 mph100%30.24 "Hg1 mi
6:20 PM50 °FFog.3 mph94%30.24 "Hg1 mi
5:57 PM50 °FFog.5 mph94%30.24 "Hg2 mi
5:20 PM50 °FPartly sunny.6 mph94%30.21 "HgN/A
4:20 PM50 °FPartly sunny.7 mph94%30.21 "HgN/A
3:20 PM52 °FMore clouds than sun.5 mph88%30.18 "HgN/A
2:20 PM52 °FMore clouds than sun.5 mph88%30.18 "HgN/A
1:20 PM50 °FMore clouds than sun.6 mph94%30.18 "HgN/A
12:20 PM50 °FBroken clouds.5 mph94%30.18 "HgN/A
11:20 AM48 °FBroken clouds.6 mph100%30.18 "Hg5 mi
10:20 AM48 °FPartly sunny.5 mph100%30.15 "HgN/A
9:20 AM46 °FPartly sunny.5 mph100%30.15 "HgN/A
8:48 AM46 °FBroken clouds.5 mph100%30.12 "HgN/A
8:20 AM48 °FBroken clouds.6 mph94%30.12 "Hg6 mi
7:20 AM48 °FFog.5 mph100%30.09 "Hg1 mi
6:49 AM48 °FPassing clouds.8 mph100%30.07 "Hg1 mi
6:20 AM48 °FFog.6 mph100%30.07 "Hg0 mi
5:20 AM48 °FFog.5 mph100%30.04 "Hg0 mi
4:20 AM50 °FCool.5 mph100%30.04 "Hg0 mi
3:20 AM50 °FCool.6 mph100%30.04 "Hg1 mi
2:20 AM50 °FCool.6 mph100%30.01 "Hg1 mi
Weather by CustomWeather, © 2016

See weather overviewHow to use our weather pages